GW3840 Weather Reports


time (UTC)temp
F
wind
direction
speed
knots
gust
knots
rain 1hr
in
rain 24hr
in
rain mn
in
humidity
%
barometer
mb
20260504050352 57 238 3.5 6.1 0.00 0.00 0.00 49 1000.0
20260504045849 57 267 5.2 7.8 0.00 0.00 0.00 47 1000.2
20260504045344 57 267 5.2 7.8 0.00 0.00 0.00 47 1000.3
20260504044841 57 194 0.9 5.2 0.00 0.00 0.00 48 1000.5
20260504044339 58 223 1.7 3.5 0.00 0.00 0.00 47 1000.4
20260504043836 58 209 4.3 6.1 0.00 0.00 0.00 47 1000.5
20260504043333 58 310 1.7 5.2 0.00 0.00 0.00 48 1000.5
20260504042830 58 281 7.8 8.7 0.00 0.00 0.00 47 1000.6
20260504042326 58 207 3.5 6.1 0.00 0.00 0.00 46 1001.0
20260504041823 58 243 8.7 13.9 0.00 0.00 0.00 45 1000.9
20260504041319 58 225 3.5 5.2 0.00 0.00 0.00 47 1000.9
20260504040815 58 182 3.5 7.0 0.00 0.00 0.00 47 1001.2
20260504040313 59 203 1.7 5.2 0.00 0.00 0.00 47 1001.2
20260504035809 59 232 3.5 6.1 0.00 0.00 0.00 46 1001.3
20260504035306 59 208 4.3 7.0 0.00 0.00 0.00 46 1001.5
20260504034803 59 184 1.7 6.1 0.00 0.00 0.00 47 1001.6
20260504034301 59 222 3.5 6.1 0.00 0.00 0.00 46 1001.9
20260504033758 59 211 1.7 6.1 0.00 0.00 0.00 46 1001.6
20260504033255 59 204 1.7 5.2 0.00 0.00 0.00 45 1001.8
20260504032752 59 259 2.6 6.1 0.00 0.00 0.00 45 1001.9
20260504032249 59 224 3.5 5.2 0.00 0.00 0.00 45 1002.1
20260504031746 59 180 1.7 2.6 0.00 0.00 0.00 44 1002.4
20260504031243 60 156 2.6 5.2 0.00 0.00 0.00 43 1002.2
20260504030738 60 195 0.9 0.9 0.00 0.00 0.00 44 1002.5
20260504030236 60 205 1.7 3.5 0.00 0.00 0.00 43 1002.7
20260504025733 60 196 0.9 2.6 0.00 0.00 0.00 43 1002.7
20260504025230 60 204 1.7 1.7 0.00 0.00 0.00 43 1002.8
20260504024727 60 204 1.7 3.5 0.00 0.00 0.00 42 1003.0
20260504024223 60 200 0.9 3.5 0.00 0.00 0.00 43 1003.1
20260504023720 60 228 0.9 3.5 0.00 0.00 0.00 43 1003.1
20260504023216 60 251 2.6 3.5 0.00 0.00 0.00 43 1003.1
20260504022712 60 168 1.7 2.6 0.00 0.00 0.00 45 1003.2
20260504022208 60 221 0.9 1.7 0.00 0.00 0.00 45 1003.3
20260504021706 60 195 0.9 3.5 0.00 0.00 0.00 45 1003.4
20260504021203 60 153 0.9 2.6 0.00 0.00 0.00 45 1003.3
20260504020700 60 227 1.7 3.5 0.00 0.00 0.00 46 1003.6
20260504020155 60 241 2.6 3.5 0.00 0.00 0.00 46 1003.6
20260504015652 60 136 2.6 3.5 0.00 0.00 0.00 45 1003.8
20260504015149 61 219 0.9 1.7 0.00 0.00 0.00 44 1003.7
20260504014644 61 209 2.6 3.5 0.00 0.00 0.00 43 1003.8
20260504014142 62 215 0.0 3.5 0.00 0.00 0.00 43 1003.9
20260504013639 62 228 2.6 2.6 0.00 0.00 0.00 41 1003.9
20260504013136 62 262 1.7 2.6 0.00 0.00 0.00 41 1004.0
20260504012633 62 219 1.7 5.2 0.00 0.00 0.00 42 1004.0
20260504012131 62 273 0.9 2.6 0.00 0.00 0.00 42 1004.3
20260504011628 62 273 0.9 2.6 0.00 0.00 0.00 42 1004.3
20260504011124 62 233 1.7 1.7 0.00 0.00 0.00 42 1004.1
20260504010620 63 252 0.9 1.7 0.00 0.00 0.00 41 1004.5
20260504010116 64 264 1.7 2.6 0.00 0.00 0.00 39 1004.3
20260504005613 65 255 0.9 1.7 0.00 0.00 0.00 36 1004.5
20260504005110 65 197 1.7 1.7 0.00 0.00 0.00 36 1004.7
20260504004608 66 257 2.6 3.5 0.00 0.00 0.00 36 1004.5
20260504004105 66 284 4.3 6.1 0.00 0.00 0.00 33 1004.7
20260504003601 66 255 5.2 6.1 0.00 0.00 0.00 33 1004.6
20260504003058 66 249 3.5 3.5 0.00 0.00 0.00 35 1004.7
20260504002555 66 252 1.7 2.6 0.00 0.00 0.00 35 1004.9
20260504002052 66 223 1.7 3.5 0.00 0.00 0.00 36 1005.1
20260504001550 67 256 5.2 7.0 0.00 0.00 0.00 33 1005.0
20260504001045 67 281 4.3 8.7 0.00 0.00 0.00 33 1005.1
20260504000543 67 249 2.6 3.5 0.00 0.00 0.00 33 1005.2
20260504000040 67 263 5.2 7.0 0.00 0.00 0.00 31 1005.3
20260503235539 67 319 5.2 6.1 0.00 0.00 0.00 30 1005.5
20260503235035 67 289 4.3 6.1 0.00 0.00 0.00 30 1005.4
20260503234533 68 260 7.8 9.6 0.00 0.00 0.00 30 1005.6
20260503234031 68 278 7.0 7.8 0.00 0.00 0.00 30 1005.5
20260503233527 68 259 6.1 7.8 0.00 0.00 0.00 30 1005.5
20260503233023 68 292 9.6 12.2 0.00 0.00 0.00 29 1005.7
20260503232520 67 279 7.0 7.8 0.00 0.00 0.00 30 1005.8
20260503232018 67 246 6.1 8.7 0.00 0.00 0.00 31 1005.9
20260503231516 67 324 5.2 7.0 0.00 0.00 0.00 31 1005.8
20260503231012 67 324 5.2 7.0 0.00 0.00 0.00 31 1005.9
20260503230509 67 324 5.2 7.0 0.00 0.00 0.00 31 1005.9
20260503230007 67 221 7.0 7.8 0.00 0.00 0.00 30 1006.3
20260503225503 67 221 7.0 7.8 0.00 0.00 0.00 30 1005.9
20260503224958 67 241 5.2 7.0 0.00 0.00 0.00 30 1006.2
20260503224455 67 241 5.2 7.0 0.00 0.00 0.00 30 1006.0
20260503223953 67 241 5.2 7.0 0.00 0.00 0.00 30 1006.2
20260503223451 67 241 5.2 7.0 0.00 0.00 0.00 30 1006.4
20260503222946 68 246 7.8 9.6 0.00 0.00 0.00 31 1006.3
20260503222445 68 263 6.1 7.8 0.00 0.00 0.00 30 1006.4
20260503221943 68 274 7.0 8.7 0.00 0.00 0.00 32 1006.1
20260503221441 68 274 7.0 8.7 0.00 0.00 0.00 32 1006.4
20260503220937 68 274 7.0 8.7 0.00 0.00 0.00 32 1006.4
20260503220434 68 274 7.0 8.7 0.00 0.00 0.00 32 1006.4
20260503215931 68 274 7.0 8.7 0.00 0.00 0.00 32 1006.4
20260503215428 68 274 7.0 8.7 0.00 0.00 0.00 32 1006.7
20260503214926 68 274 7.0 8.7 0.00 0.00 0.00 32 1006.6
20260503214423 68 274 7.0 8.7 0.00 0.00 0.00 32 1006.6
20260503213920 68 269 7.8 9.6 0.00 0.00 0.00 29 1006.8
20260503213418 68 269 7.8 9.6 0.00 0.00 0.00 29 1006.9
20260503212914 68 300 9.6 13.0 0.00 0.00 0.00 29 1007.1
20260503212412 69 226 3.5 7.8 0.00 0.00 0.00 30 1007.0
20260503211909 68 245 6.1 11.3 0.00 0.00 0.00 31 1007.1
20260503211406 68 315 6.1 7.8 0.00 0.00 0.00 28 1007.4
20260503210901 68 308 3.5 7.8 0.00 0.00 0.00 32 1007.2
20260503210359 68 291 7.8 11.3 0.00 0.00 0.00 30 1007.4
20260503205853 68 343 3.5 7.0 0.00 0.00 0.00 35 1007.6
20260503205350 68 276 5.2 11.3 0.00 0.00 0.00 31 1007.7
20260503204846 67 244 7.0 8.7 0.00 0.00 0.00 32 1007.7
20260503204344 67 354 3.5 7.0 0.00 0.00 0.00 36 1007.7
20260503203841 67 256 5.2 8.7 0.00 0.00 0.00 36 1007.9
20260503203338 66 324 3.5 9.6 0.00 0.00 0.00 34 1008.0
20260503202835 66 276 4.3 7.8 0.00 0.00 0.00 34 1008.1
20260503202333 66 300 3.5 5.2 0.00 0.00 0.00 35 1008.1
20260503201831 66 0 5.2 12.2 0.00 0.00 0.00 35 1008.3
20260503201327 65 306 5.2 9.6 0.00 0.00 0.00 36 1008.3
20260503200826 65 2 6.1 12.2 0.00 0.00 0.00 33 1008.4
20260503200321 66 308 7.0 7.8 0.00 0.00 0.00 33 1008.4
20260503195819 66 347 6.1 8.7 0.00 0.00 0.00 31 1008.5
20260503195315 66 296 7.0 8.7 0.00 0.00 0.00 31 1008.7
20260503194813 66 314 3.5 6.1 0.00 0.00 0.00 34 1008.8
20260503194308 66 259 7.8 11.3 0.00 0.00 0.00 38 1008.6
20260503193804 65 313 7.0 8.7 0.00 0.00 0.00 34 1008.8
20260503193301 66 207 9.6 11.3 0.00 0.00 0.00 33 1008.7
20260503192756 66 207 9.6 11.3 0.00 0.00 0.00 33 1008.9
20260503192252 65 340 7.0 7.8 0.00 0.00 0.00 35 1008.9
20260503191749 65 324 4.3 6.1 0.00 0.00 0.00 35 1008.9
20260503191246 65 309 5.2 6.1 0.00 0.00 0.00 37 1009.1
20260503190743 65 322 4.3 7.8 0.00 0.00 0.00 35 1009.0
20260503190240 65 294 5.2 8.7 0.00 0.00 0.00 33 1009.1
20260503185737 64 267 6.1 8.7 0.00 0.00 0.00 34 1009.1
20260503185232 64 328 4.3 6.1 0.00 0.00 0.00 34 1009.3
20260503184727 64 294 4.3 8.7 0.00 0.00 0.00 33 1009.5
20260503184224 64 283 3.5 6.1 0.00 0.00 0.00 36 1009.2
20260503183720 64 15 7.0 9.6 0.00 0.00 0.00 37 1009.3
20260503183217 64 314 2.6 7.0 0.00 0.00 0.00 36 1009.6
20260503182716 64 330 1.7 7.8 0.00 0.00 0.00 33 1009.6
20260503182214 63 287 7.0 8.7 0.00 0.00 0.00 33 1009.7
20260503181710 63 348 3.5 9.6 0.00 0.00 0.00 35 1009.9
20260503181207 64 317 5.2 7.0 0.00 0.00 0.00 34 1010.0
20260503180704 63 10 3.5 5.2 0.00 0.00 0.00 38 1010.2
20260503180202 62 250 1.7 5.2 0.00 0.00 0.00 41 1010.2
20260503175659 62 5 5.2 7.8 0.00 0.00 0.00 35 1010.4
20260503175156 62 354 7.8 8.7 0.00 0.00 0.00 34 1010.4
20260503174652 62 64 7.0 11.3 0.00 0.00 0.00 35 1010.3
20260503174150 63 347 3.5 7.0 0.00 0.00 0.00 35 1010.3
20260503173644 62 243 4.3 9.6 0.00 0.00 0.00 36 1010.5
20260503173141 61 351 5.2 12.2 0.00 0.00 0.00 36 1010.4
20260503172638 62 293 3.5 7.0 0.00 0.00 0.00 38 1010.6
20260503172135 62 316 5.2 11.3 0.00 0.00 0.00 36 1010.5
20260503171632 61 253 3.5 9.6 0.00 0.00 0.00 37 1010.5
20260503171129 62 26 4.3 7.0 0.00 0.00 0.00 37 1010.6
20260503170626 62 268 2.6 7.0 0.00 0.00 0.00 38 1010.7
20260503170123 62 328 5.2 11.3 0.00 0.00 0.00 36 1010.6
20260503150515 57 324 6.1 7.8 0.00 0.00 0.00 42 1010.7
20260503131408 52 154 4.3 7.8 0.00 0.00 0.00 65 1010.2
20260503130904 52 29 4.3 6.1 0.00 0.00 0.00 65 1010.1
20260503130402 51 319 6.1 7.8 0.00 0.00 0.00 66 1010.1
20260503110805 48 357 2.6 6.1 0.00 0.00 0.00 71 1008.9
20260503110303 48 19 1.7 5.2 0.00 0.00 0.00 71 1008.8
20260503100229 47 48 0.9 1.7 0.00 0.00 0.00 71 1008.5
20260503090154 48 124 1.7 2.6 0.00 0.00 0.00 68 1007.9
20260503081630 50 341 3.5 3.5 0.00 0.00 0.00 66 1007.2
20260503081126 50 327 1.7 5.2 0.00 0.00 0.00 65 1007.2
20260503080622 51 328 2.6 3.5 0.00 0.00 0.00 65 1007.2
20260503080119 51 343 3.5 5.2 0.00 0.00 0.00 65 1007.1
20260503072556 50 233 0.9 1.7 0.00 0.00 0.00 69 1006.9
20260503072054 50 235 0.9 1.7 0.00 0.00 0.00 70 1007.0
20260503071550 48 226 0.0 0.9 0.00 0.00 0.00 74 1006.8
20260503071047 48 232 0.9 1.7 0.00 0.00 0.00 75 1006.8
20260503070543 47 224 0.0 0.0 0.00 0.00 0.00 78 1006.7